Regional Weather Roundup
Issued by NWS Newport/Morehead, NC

Current Version | Previous Version | Text Only | Print | Product List | Glossary On
Versions: 1 2 3 4 5 6 7 8 9 10 11 12 13 14 15 16 17 18 19 20 21 22 23 24 25 26 27 28 29 30 31 32 33 34 35 36 37 38 39 40 41 42 43 44 45 46 47 48 49 50
000
ASUS42 KMHX 130925
RWRMHX
WEATHER ROUNDUP FOR EASTERN NORTH CAROLINA
NATIONAL WEATHER SERVICE NEWPORT/MOREHEAD CITY NC
400 AM EST WED DEC 13 2017

NOTE: "FAIR" INDICATES FEW OR NO CLOUDS BELOW 12,000 FEET
WITH NO SIGNIFICANT WEATHER AND/OR OBSTRUCTIONS TO VISIBILITY

NCZ015>017-031-032-045>047-102-103-131000-
NORTH COAST

CITY           SKY/WX    TMP DP  RH WIND       PRES   REMARKS
EDENTON        CLEAR     30  10  42 NW5       29.86R
ELIZABETH CITY CLEAR     25   7  46 NW7       29.83R
KITTY HAWK     SUNNY     29   8  40 NW10G20   29.80R WCI  20
MANTEO         CLEAR     30   6  37 NW13G24   29.83R WCI  20

$$

NCZ045>047-081-094-103-104-131000-
CENTRAL COAST

CITY           SKY/WX    TMP DP  RH WIND       PRES   REMARKS
FRISCO         CLEAR     33  14  45 NW17G30   29.83R

$$

NCZ095-097-098-100-101-131000-
SOUTHERN COAST

CITY           SKY/WX    TMP DP  RH WIND       PRES   REMARKS
BEAUFORT       CLEAR     31  18  58 NW14      29.87R
CEDAR ISLAND   NOT AVBL
JACKSONVILLE   CLEAR     30  18  60 NW9       29.89R
PINEY ISLAND     N/A    N/A N/A N/A NW18G29   29.86R
WILMINGTON     CLEAR     32  14  47 NW10      29.91R


$$

NCZ011>013-027>030-043-044-078>080-089-090>093-098-131000-
COASTAL PLAIN

CITY           SKY/WX    TMP DP  RH WIND       PRES   REMARKS
AHOSKIE        PTCLDY    27   8  44 CALM      29.86S
CLINTON        CLEAR     30  16  54 CALM      29.92R
ELIZABETHTOWN  NOT AVBL
GOLDSBORO      CLEAR     28  11  48 W3        29.88R
GREENVILLE     CLEAR     30  10  43 NW5       29.90S
HAVELOCK       CLEAR     31  13  47 NW16      29.89R WCI  20
KENANSVILLE    CLEAR     30  12  47 NW6       29.90R
KINSTON        CLEAR     29  12  47 NW7       29.91R
NEW BERN       CLEAR     29  13  51 NW9       29.89R
RICHLANDS      CLEAR     29  17  61 VRB5      29.90R
ROCKY MOUNT    CLEAR     28   9  44 NW9       29.88R
WASHINGTON     CLEAR     29  13  50 CALM      29.88R
WHITEVILLE     CLEAR     31  16  54 CALM      29.93R

$$

AMZ130-135-150-152-154-156-158-170-250-252-270-ANZ085-086-088-633-658-670-131000-
MARINE OBSERVATIONS

STATION/POSITION TIME  TEMP    WIND        PRES    WAVE   SWELL
                       AIR SEA DIR/SP/G            HT/PER HT/PER
                 (UTC) (F)     (DEG/KT/KT) (MB)    (FT/S) (FT/S)
CHESAPEAKE LIGHT NOT AVBL
64 E VA BEACH    0850   35 59  300/ 29/ 39 1006.2   12/ 8
DUCK             0900   30 55  310/ 19/ 26 1009.0
2 E DUCK         0900      56                N/A     5/ 5
OREGON INLET     0900   31 45  300/ 21/ 28 1009.3
13E OREGON INLT  0848      58                N/A     8/ 7   5/13
HATTERAS CG      0900   34 54  310/ 26/ 32 1009.7
DIAMOND BUOY     0910   38 73  310/ 31/ 41 1009.4
CAPE LOOKOUT     0900          340/ 20/ 23 1011.5
BEAUFORT LAB     0900   33 51  320/ 11/ 15 1011.6
30 SE NEW RVR IN 0808   40 63  360/ 19/ 25 1011.3
30 SE NEW RVR IN 0900      63                N/A     7/ 6
27 SE WRIGHTSVLE 0808   42 65  320/ 23/ 37 1010.9
5 SE WRIGHTSVLE  0908   37 57  330/ 16/ 23 1011.9
225 S CAPE HAT   0850   64 75  290/ 27/ 35 1006.3   15/11   8/11
41 SE CHARLESTON 0910   48 74  330/ 19/ 25 1012.6

$$



USA.gov is the U.S. government's official web portal to all federal, state and local government web resources and services.